Stündliche Wetter Barrancabermeja

Heute, 20 Oktober, Dienstag

Zeit Temperatur Niederschläge Wind Luftdruck Luftfeuchtigkeit
00:00 +23°C° 0 mm 0 m/S 751 mmHg 96%
01:00 +23°C° 0 mm 0 m/S 751 mmHg 96%
02:00 +22°C° 0.1 mm 0 m/S 751 mmHg 96%
03:00 +22°C° 0.1 mm 0 m/S 751 mmHg 96%
04:00 +22°C° 0.1 mm 0 m/S 751 mmHg 97%
05:00 +23°C° 0.1 mm 0 m/S 751 mmHg 95%
06:00 +23°C° 0.1 mm 0 m/S 752 mmHg 92%
07:00 +24°C° 0.1 mm 0 m/S 753 mmHg 90%
08:00 +26°C° 0 mm 0 m/S 752 mmHg 80%
09:00 +29°C° 0 mm 0 m/S 752 mmHg 70%
10:00 +31°C° 0 mm 0 m/S 752 mmHg 60%
11:00 +34°C° 0 mm 1 m/S 751 mmHg 56%
12:00 +35°C° 0 mm 1 m/S 750 mmHg 52%
13:00 +36°C° 0 mm 1 m/S 749 mmHg 49%
14:00 +35°C° 0 mm 1 m/S 749 mmHg 52%
15:00 +34°C° 0 mm 1 m/S 748 mmHg 55%
16:00 +35°C° 0 mm 2 m/S 748 mmHg 58%
17:00 +32°C° 0 mm 1 m/S 749 mmHg 66%
18:00 +30°C° 0 mm 1 m/S 749 mmHg 75%
19:00 +28°C° 0 mm 1 m/S 750 mmHg 83%
20:00 +27°C° 0.3 mm 1 m/S 751 mmHg 85%
21:00 +25°C° 0.3 mm 0 m/S 751 mmHg 87%
22:00 +24°C° 0.3 mm 0 m/S 752 mmHg 89%
23:00 +24°C° 0.7 mm 0 m/S 752 mmHg 91%

Morgen, 21 Oktober, Mittwoch

Zeit Temperatur Niederschläge Wind Luftdruck Luftfeuchtigkeit
00:00 +24°C° 0.7 mm 0 m/S 752 mmHg 93%
01:00 +24°C° 0.7 mm 0 m/S 752 mmHg 95%
02:00 +23°C° 2 mm 0 m/S 752 mmHg 96%
03:00 +23°C° 2 mm 0 m/S 752 mmHg 97%
04:00 +23°C° 2 mm 0 m/S 751 mmHg 98%
05:00 +23°C° 0.7 mm 0 m/S 752 mmHg 97%
06:00 +23°C° 0.7 mm 0 m/S 753 mmHg 97%
07:00 +23°C° 0.7 mm 0 m/S 753 mmHg 97%
08:00 +25°C° 0 mm 0 m/S 753 mmHg 88%
09:00 +27°C° 0 mm 0 m/S 753 mmHg 79%
10:00 +31°C° 0 mm 1 m/S 753 mmHg 70%
11:00 +32°C° 0 mm 1 m/S 752 mmHg 66%
12:00 +33°C° 0 mm 1 m/S 751 mmHg 62%
13:00 +34°C° 0 mm 1 m/S 750 mmHg 58%
14:00 +31°C° 0 mm 0 m/S 750 mmHg 62%
15:00 +30°C° 0 mm 0 m/S 749 mmHg 66%
16:00 +29°C° 0 mm 0 m/S 749 mmHg 71%
17:00 +28°C° 0.2 mm 0 m/S 749 mmHg 77%
18:00 +27°C° 0.2 mm 0 m/S 750 mmHg 83%
19:00 +25°C° 0.2 mm 0 m/S 751 mmHg 89%
20:00 +25°C° 2.4 mm 0 m/S 751 mmHg 92%
21:00 +24°C° 2.4 mm 0 m/S 752 mmHg 94%
22:00 +24°C° 2.4 mm 0 m/S 752 mmHg 97%
23:00 +24°C° 3.6 mm 0 m/S 752 mmHg 98%

übermorgen, 22 Oktober, Donnerstag

Zeit Temperatur Niederschläge Wind Luftdruck Luftfeuchtigkeit
00:00 +26°C° 3.6 mm 1 m/S 752 mmHg 98%
01:00 +26°C° 3.6 mm 1 m/S 752 mmHg 99%
02:00 +25°C° 1.1 mm 1 m/S 752 mmHg 99%
03:00 +25°C° 1.1 mm 1 m/S 752 mmHg 99%
04:00 +23°C° 1.1 mm 0 m/S 752 mmHg 99%
05:00 +23°C° 1.7 mm 0 m/S 752 mmHg 99%
06:00 +23°C° 1.7 mm 0 m/S 753 mmHg 99%
07:00 +23°C° 1.7 mm 0 m/S 754 mmHg 99%
08:00 +23°C° 0.6 mm 0 m/S 754 mmHg 98%
09:00 +24°C° 0.6 mm 0 m/S 754 mmHg 97%
10:00 +24°C° 0.6 mm 0 m/S 754 mmHg 95%
11:00 +26°C° 0 mm 0 m/S 753 mmHg 87%
12:00 +27°C° 0 mm 0 m/S 752 mmHg 79%
13:00 +28°C° 0 mm 0 m/S 751 mmHg 71%
14:00 +28°C° 0 mm 0 m/S 750 mmHg 72%
15:00 +28°C° 0 mm 0 m/S 750 mmHg 73%
16:00 +28°C° 0 mm 0 m/S 749 mmHg 74%
17:00 +26°C° 0 mm 0 m/S 750 mmHg 79%
18:00 +25°C° 0 mm 0 m/S 751 mmHg 85%
19:00 +24°C° 0 mm 0 m/S 752 mmHg 90%
20:00 +24°C° 0 mm 0 m/S 752 mmHg 91%
21:00 +23°C° 0 mm 0 m/S 752 mmHg 92%
22:00 +23°C° 0 mm 0 m/S 753 mmHg 93%
23:00 +23°C° 0.2 mm 0 m/S 753 mmHg 93%

23 Oktober, Freitag

Zeit Temperatur Niederschläge Wind Luftdruck Luftfeuchtigkeit
00:00 +23°C° 0.2 mm 0 m/S 753 mmHg 93%
01:00 +23°C° 0.2 mm 0 m/S 753 mmHg 93%
02:00 +23°C° 0 mm 0 m/S 752 mmHg 94%
03:00 +23°C° 0 mm 0 m/S 752 mmHg 94%
04:00 +23°C° 0 mm 0 m/S 752 mmHg 95%
05:00 +23°C° 0 mm 0 m/S 752 mmHg 94%
06:00 +23°C° 0 mm 0 m/S 752 mmHg 92%
07:00 +26°C° 0 mm 1 m/S 753 mmHg 90%
08:00 +28°C° 0 mm 1 m/S 753 mmHg 80%
09:00 +31°C° 0 mm 1 m/S 753 mmHg 70%
10:00 +33°C° 0 mm 1 m/S 752 mmHg 60%
11:00 +32°C° 0 mm 0 m/S 751 mmHg 55%
12:00 +34°C° 0 mm 0 m/S 750 mmHg 50%
13:00 +35°C° 0 mm 0 m/S 749 mmHg 45%
14:00 +34°C° 0 mm 0 m/S 749 mmHg 48%
15:00 +36°C° 0 mm 1 m/S 748 mmHg 52%
16:00 +35°C° 0 mm 1 m/S 748 mmHg 55%
17:00 +32°C° 0 mm 1 m/S 749 mmHg 65%
18:00 +30°C° 0 mm 1 m/S 750 mmHg 75%
19:00 +28°C° 0 mm 1 m/S 750 mmHg 85%
20:00 +27°C° 0.9 mm 1 m/S 751 mmHg 88%
21:00 +25°C° 0.9 mm 0 m/S 752 mmHg 91%
22:00 +24°C° 0.9 mm 0 m/S 752 mmHg 94%
23:00 +24°C° 1.1 mm 0 m/S 752 mmHg 95%

24 Oktober, Samstag

Zeit Temperatur Niederschläge Wind Luftdruck Luftfeuchtigkeit
00:00 +23°C° 1.1 mm 0 m/S 752 mmHg 95%
01:00 +23°C° 1.1 mm 0 m/S 752 mmHg 96%
02:00 +23°C° 0.4 mm 0 m/S 752 mmHg 96%
03:00 +23°C° 0.4 mm 0 m/S 751 mmHg 97%
04:00 +23°C° 0.4 mm 0 m/S 751 mmHg 97%
05:00 +23°C° 0.3 mm 0 m/S 752 mmHg 97%
06:00 +23°C° 0.3 mm 0 m/S 752 mmHg 97%
07:00 +23°C° 0.3 mm 0 m/S 753 mmHg 97%
08:00 +25°C° 0.1 mm 0 m/S 753 mmHg 87%
09:00 +27°C° 0.1 mm 0 m/S 753 mmHg 78%
10:00 +29°C° 0.1 mm 0 m/S 753 mmHg 69%
11:00 +30°C° 0.1 mm 0 m/S 752 mmHg 64%
12:00 +33°C° 0.1 mm 1 m/S 750 mmHg 60%
13:00 +34°C° 0.1 mm 1 m/S 749 mmHg 56%
14:00 +34°C° 0.2 mm 1 m/S 749 mmHg 60%
15:00 +33°C° 0.2 mm 1 m/S 749 mmHg 63%
16:00 +32°C° 0.2 mm 1 m/S 749 mmHg 66%
17:00 +31°C° 1 mm 1 m/S 749 mmHg 75%
18:00 +27°C° 1 mm 0 m/S 750 mmHg 84%
19:00 +25°C° 1 mm 0 m/S 750 mmHg 93%
20:00 +24°C° 3.7 mm 0 m/S 751 mmHg 95%
21:00 +26°C° 3.7 mm 1 m/S 752 mmHg 96%
22:00 +26°C° 3.7 mm 1 m/S 752 mmHg 97%
23:00 +25°C° 3.9 mm 1 m/S 752 mmHg 98%

25 Oktober, Sonntag

Zeit Temperatur Niederschläge Wind Luftdruck Luftfeuchtigkeit
00:00 +25°C° 3.9 mm 1 m/S 752 mmHg 98%
01:00 +25°C° 3.9 mm 1 m/S 752 mmHg 99%
02:00 +23°C° 3.9 mm 0 m/S 752 mmHg 99%
03:00 +23°C° 3.9 mm 0 m/S 752 mmHg 99%
04:00 +22°C° 3.9 mm 0 m/S 752 mmHg 99%
05:00 +22°C° 0.6 mm 0 m/S 752 mmHg 99%
06:00 +22°C° 0.6 mm 0 m/S 753 mmHg 99%
07:00 +22°C° 0.6 mm 0 m/S 753 mmHg 99%
08:00 +23°C° 0.1 mm 0 m/S 753 mmHg 97%
09:00 +23°C° 0.1 mm 0 m/S 754 mmHg 95%
10:00 +24°C° 0.1 mm 0 m/S 754 mmHg 94%
11:00 +27°C° 0.1 mm 1 m/S 753 mmHg 86%
12:00 +29°C° 0.1 mm 1 m/S 752 mmHg 78%
13:00 +30°C° 0.1 mm 1 m/S 751 mmHg 71%
14:00 +30°C° 0 mm 1 m/S 751 mmHg 71%
15:00 +30°C° 0 mm 1 m/S 750 mmHg 72%
16:00 +30°C° 0 mm 1 m/S 750 mmHg 72%
17:00 +28°C° 0 mm 1 m/S 751 mmHg 79%
18:00 +25°C° 0 mm 0 m/S 751 mmHg 85%
19:00 +24°C° 0 mm 0 m/S 752 mmHg 92%
20:00 +23°C° 0 mm 0 m/S 752 mmHg 93%
21:00 +23°C° 0 mm 0 m/S 753 mmHg 94%
22:00 +23°C° 0 mm 0 m/S 753 mmHg 94%
23:00 +23°C° 0 mm 0 m/S 753 mmHg 95%

26 Oktober, Montag

Zeit Temperatur Niederschläge Wind Luftdruck Luftfeuchtigkeit
00:00 +22°C° 0 mm 0 m/S 753 mmHg 96%
01:00 +22°C° 0 mm 0 m/S 752 mmHg 96%
02:00 +22°C° 0 mm 0 m/S 752 mmHg 96%
03:00 +22°C° 0 mm 0 m/S 752 mmHg 97%
04:00 +22°C° 0 mm 0 m/S 752 mmHg 97%
05:00 +23°C° 0 mm 0 m/S 752 mmHg 94%
06:00 +23°C° 0 mm 0 m/S 753 mmHg 92%
07:00 +24°C° 0 mm 0 m/S 753 mmHg 89%
08:00 +26°C° 0 mm 0 m/S 753 mmHg 79%
09:00 +29°C° 0 mm 0 m/S 753 mmHg 69%
10:00 +31°C° 0 mm 0 m/S 753 mmHg 59%
11:00 +32°C° 0 mm 0 m/S 752 mmHg 55%
12:00 +33°C° 0 mm 0 m/S 751 mmHg 51%
13:00 +34°C° 0 mm 0 m/S 750 mmHg 47%
14:00 +35°C° 0 mm 1 m/S 749 mmHg 52%
15:00 +34°C° 0 mm 1 m/S 749 mmHg 57%
16:00 +33°C° 0 mm 1 m/S 749 mmHg 62%
17:00 +31°C° 0.1 mm 1 m/S 749 mmHg 70%
18:00 +29°C° 0.1 mm 1 m/S 750 mmHg 78%
19:00 +27°C° 0.1 mm 1 m/S 751 mmHg 86%
20:00 +25°C° 0.2 mm 0 m/S 751 mmHg 87%
21:00 +25°C° 0.2 mm 0 m/S 752 mmHg 89%
22:00 +24°C° 0.2 mm 0 m/S 752 mmHg 90%
23:00 +24°C° 1.3 mm 0 m/S 752 mmHg 92%
Mehr zeigen